Home   Weather   Ny-Ålesund   Past weeks

Flag for Norway Past Weather in Ny-Ålesund, Svalbard, Norway — Yesterday and Last 2 Weeks

Now
38 °F

Chilly.


Feels Like: 31 °F
Forecast: 29 / 32 °F
Wind: 12 mph from Southeast

Location: Ny Alesund

Current Time: Sep 29, 2016 at 3:39:26 PM

Latest Report: Sep 29, 2016 at 3:00 PM


Visibility: N/A

Pressure: 29.47 "Hg

Humidity: 62%

Dew Point: 27 °F

Location of Ny-ÅlesundLocation

Past Weather in Ny-Ålesund — Graph

°F

Ny-Ålesund Temperature Yesterday

Maximum temperature yesterday: 42 °F (at 4:00 AM)
Minimum temperature yesterday: 38 °F (at 11:00 PM)
Average temperature yesterday: 40 °F

High & Low Weather Summary for the Past Weeks

 TemperatureHumidityPressure
High50 °F (Sep 17, 5:00 PM)91% (Sep 26, 5:00 AM)30.10 "Hg (Sep 26, 5:00 AM)
Low31 °F (Sep 23, 12:00 AM)61% (Sep 29, 1:00 PM)29.06 "Hg (Sep 18, 8:00 PM)
Average38 °F81%29.81 "Hg
* Reported Sep 14 2:00 PM — Sep 29 2:00 PM, Ny-Ålesund, Weather by CustomWeather, © 2016

Note: Actual official high and low records may vary slightly from our data, if they occured in-between our weather recording intervals... More about our weather records

Advertising

Ny-Ålesund Weather History for the Previous 24 Hours

Scroll right to see more
 ConditionsComfort  
Time TempWeatherWind HumidityBarometerVisibility
2:00 PM
Thu, Sep 29
39 °FScattered clouds.10 mph62%29.50 "Hg47 mi
1:00 PM39 °FChilly.8 mph61%29.50 "HgN/A
11:00 AM38 °FChilly.10 mph63%29.55 "HgN/A
9:00 AM37 °FChilly.8 mph67%29.57 "HgN/A
8:00 AM37 °FChilly.10 mph66%29.58 "HgN/A
7:00 AM39 °FChilly.10 mph65%29.58 "HgN/A
6:00 AM35 °FChilly.1 mph86%29.59 "HgN/A
5:00 AM35 °FChilly.2 mph88%29.61 "HgN/A
4:00 AM35 °FChilly.No wind88%29.62 "HgN/A
3:00 AM36 °FChilly.1 mph87%29.62 "HgN/A
2:00 AM36 °FChilly.1 mph86%29.63 "HgN/A
1:00 AM37 °FChilly.No wind86%29.63 "HgN/A
12:00 AM37 °FChilly.No wind85%29.64 "HgN/A
11:00 PM
Wed, Sep 28
38 °FChilly.1 mph85%29.64 "HgN/A
10:00 PM39 °FChilly.1 mph83%29.64 "HgN/A
9:00 PM40 °FChilly.1 mph81%29.64 "HgN/A
8:00 PM39 °FOvercast.No wind81%29.64 "Hg22 mi
7:00 PM40 °FQuite cool.1 mph80%29.63 "HgN/A
6:00 PM40 °FChilly.2 mph83%29.64 "HgN/A
5:00 PM40 °FChilly.No wind80%29.63 "HgN/A
4:00 PM42 °FQuite cool.1 mph80%29.63 "HgN/A
3:00 PM40 °FChilly.1 mph84%29.63 "HgN/A
Weather by CustomWeather, © 2016

See weather overviewHow to use our weather pages